Home   Weather   Theni   Past weeks

Flag for India Past Weather in Theni, Tamil Nadu, India — Yesterday and Last 2 Weeks

Now
68 °F

Haze.


Feels Like: 68 °F
Forecast: 71 / 83 °F
Wind: No wind

Location: Coimbatore / Peelamedu

Current Time: Jan 25, 2017 at 7:00:36 am

Latest Report: Jan 25, 2017 at 6:30 am


Visibility: 2 mi

Pressure: 30.04 "Hg

Humidity: 73%

Dew Point: 59 °F

Location of TheniLocation

Past Weather in Theni — Graph

°F

Theni Temperature Yesterday

Maximum temperature yesterday: 90 °F (at 1:00 pm)
Minimum temperature yesterday: 68 °F (at 5:30 am)
Average temperature yesterday: 79 °F

High & Low Weather Summary for the Past Weeks

 TemperatureHumidityPressure
High91 °F (Jan 23, 3:30 pm)100% (Jan 22, 6:00 am)30.12 "Hg (Jan 22, 6:00 am)
Low64 °F (Jan 18, 7:00 am)17% (Jan 17, 4:00 pm)29.83 "Hg (Jan 10, 4:00 pm)
Average78 °F54%29.99 "Hg
* Reported Jan 10 5:30 am — Jan 25 5:30 am, Theni, Weather by CustomWeather, © 2017

Note: Actual official high and low records may vary slightly from our data, if they occured in-between our weather recording intervals... More about our weather records

Advertising

Theni Weather History for the Previous 24 Hours

Scroll right to see more
 ConditionsComfort  
Time TempWeatherWind HumidityBarometerVisibility
5:30 am
Wed, Jan 25
68 °FHaze.No wind73%30.01 "Hg3 mi
4:30 am72 °FHaze.No wind57%30.01 "Hg3 mi
3:30 am72 °FHaze.No wind57%30.01 "Hg3 mi
2:30 am72 °FHaze.No wind57%30.01 "Hg3 mi
11:30 pm
Tue, Jan 24
77 °FHaze.9 mph47%30.04 "Hg3 mi
10:30 pm79 °FPassing clouds.7 mph42%30.04 "Hg4 mi
9:30 pm81 °FPassing clouds.9 mph39%30.04 "Hg4 mi
8:30 pm82 °FPassing clouds.7 mph40%30.01 "Hg4 mi
7:30 pm84 °FPassing clouds.7 mph37%29.98 "Hg4 mi
6:30 pm88 °FPassing clouds.10 mph27%29.95 "Hg4 mi
5:30 pm90 °FHot.13 mph26%29.92 "HgN/A
4:30 pm90 °FPassing clouds.8 mph22%29.92 "Hg5 mi
3:30 pm90 °FPassing clouds.9 mph24%29.92 "Hg5 mi
2:30 pm90 °FPassing clouds.16 mph24%29.95 "Hg5 mi
2:00 pm90 °FPassing clouds.12 mph24%29.95 "Hg5 mi
1:30 pm90 °FPassing clouds.9 mph24%29.98 "Hg4 mi
1:00 pm90 °FPassing clouds.16 mph24%30.01 "Hg4 mi
12:30 pm88 °FPassing clouds.17 mph25%30.01 "Hg4 mi
12:00 pm88 °FPassing clouds.15 mph27%30.04 "Hg4 mi
11:30 am86 °FHaze.14 mph31%30.07 "Hg3 mi
11:00 am82 °FHaze.12 mph40%30.07 "Hg3 mi
10:30 am81 °FHaze.9 mph45%30.07 "Hg3 mi
10:00 am77 °FHaze.12 mph51%30.07 "Hg3 mi
9:30 am75 °FHaze.7 mph57%30.07 "Hg3 mi
9:00 am75 °FHaze.7 mph57%30.07 "Hg3 mi
8:30 am73 °FHaze.7 mph57%30.07 "Hg3 mi
8:00 am72 °FHaze.6 mph61%30.04 "Hg3 mi
7:30 am70 °FHaze.3 mph60%30.04 "Hg3 mi
7:00 am68 °FHaze.No wind64%30.01 "Hg3 mi
Weather by CustomWeather, © 2017

See weather overviewHow to use our weather pages